sat.trackr.live / text

‹ back to catalog

GALAXY 30 (WAAS/PRN 135)

NORAD 46114 · 2020-056C

PAYLOAD ACTIVE UNKNOWN

§ Identity

Operator
Country
US
Launch date
2020-08-15
Launch site
FRGUI
Launch vehicle
Mass (kg)
RCS (m²)

Purposes: comms, nav

External: N2YO · Heavens-Above · Gunter

§ Orbital elements

Epoch: 2026-05-25T03:50:38.783040Z

Period
1,436.07 min
Inclination
0.0163°
Eccentricity
0.0002261
Mean motion
1.00273431 rev/d
Perigee alt
35,776.6 km
Apogee alt
35,795.7 km
Semi-major
42,164.3 km
B*
0.0000e+0
RAAN
336.7369°
Arg perigee
85.5412°
Mean anomaly
113.1479°
Rev number
2,106

§ Raw data

GALAXY 30 (WAAS/PRN 135)1 46114U 20056C   26145.16017110  .00000034  00000+0  00000+0 0  99992 46114   0.0163 336.7369 0002261  85.5412 113.1479  1.00273431 21067

JSON: /api/v1/satellites/46114 · /tle

For live sub-satellite position, see the globe view (requires WebGL).

§ Visibility from observer

Set your observer location to see the next 7 days of passes ≥ 10°. The values pass through the URL so the page stays shareable.

No JS? Fill the form by hand. The geolocation button needs JavaScript.